Regional Weather Roundup
Issued by NWS Kansas City/Pleasant Hill, MO

Home | Current Version | Previous Version | Text Only | Print | Product List | Glossary On
Versions: 1 2 3 4 5 6 7 8 9 10 11 12 13 14 15 16 17 18 19 20 21 22 23 24 25 26 27 28 29 30 31 32 33 34 35 36 37 38 39 40 41 42 43 44 45 46 47 48 49 50
000
ASUS43 KEAX 280111
RWREAX

WEATHER ROUNDUP FOR EASTERN KANSAS AND NORTHWEST MISSOURI
NATIONAL WEATHER SERVICE KANSAS CITY/PLEASANT HILL MO
800 PM CDT MON APR 27 2015

KSZ040-057-103>105-MOZ028-029-037-043-280200-
...KANSAS CITY METROPOLITAN AREA...

CITY           SKY/WX    TMP DP  RH WIND       PRES   REMARKS
K.C. INTL      MOCLDY    60  36  40 NE8       30.07R
K.C. DOWNTOWN  MOCLDY    61  36  39 NE6       30.06R
LEES SUMMIT    PTCLDY    61  36  39 NE6       30.06R
OLATHE - IXD   PTCLDY    61  35  37 NE9       30.07R
OLATHE - OJC   PTCLDY    61  35  37 NE9       30.05R
LAWRENCE       PTCLDY    61  36  39 NE7       30.07R

$$

MOZ001>008-011>017-020>025-030>033-038>040-044>046-053-054-280200-
...NORTHERN AND CENTRAL MISSOURI...

CITY           SKY/WX    TMP DP  RH WIND       PRES   REMARKS
ST. JOSEPH     PTCLDY    60  35  39 NE8       30.08R
MOSBY          MOCLDY    63  32  31 NE3       30.07R
WARRENSBURG    MOCLDY    59  36  41 N7        30.05R
WHITEMAN AFB   PTCLDY    58  40  51 NE5       30.04R
CLINTON        PTCLDY    61  37  41 NE8       30.04R
SEDALIA        MOCLDY    60  38  43 NE5       30.05S
WARSAW         NOT AVBL
MARSHALL       PTCLDY    63  39  42 NE6       30.07R
CHILLICOTHE      N/A     63  38  39 NE3       30.08S
MOBERLY        PTCLDY    59  36  41 NE6       30.08R
KIRKSVILLE     CLEAR     56  41  57 NE8       30.09R

$$

MOZ041-047>049-056>058-063>065-088>090-097-280200-
...EASTERN AND SOUTHERN MISSOURI...

CITY           SKY/WX    TMP DP  RH WIND       PRES   REMARKS
ST. LOUIS INTL MOCLDY    62  35  36 NE7       30.05R
SPIRIT OF STL  PTCLDY    60  34  37 NE9       30.04R
COLUMBIA       PTCLDY    59  37  44 NE8       30.05R
JEFFERSON CITY MOCLDY    63  33  32 N6        30.04R
MEXICO         PTCLDY    61  45  55 NE7       30.06S
HANNIBAL       PTCLDY    61  30  31 CALM      30.08R
LEBANON        PTCLDY    57  34  41 NE3       30.03R
OSAGE BEACH    PTCLDY    61  34  36 NE9G16    30.03R
SPRINGFIELD    CLOUDY    59  33  37 NE9       30.01R
BRANSON        CLOUDY    59  32  36 E9        29.99R
NEVADA         MOCLDY    55  39  54 NE6       30.05R
JOPLIN         CLOUDY    59  38  45 NE7       30.02R
WEST PLAINS    CLOUDY    58  33  39 E5        30.01R

$$

IAZ060-094-KSZ022-034>040-054-083-096-NEZ052-066-093-280200-
...KANSAS...SOUTHEAST NEBRASKA AND IOWA...

CITY           SKY/WX    TMP DP  RH WIND       PRES   REMARKS
TOPEKA         PTCLDY    61  35  37 NE6       30.08R
MANHATTAN      CLEAR     58  38  47 NE6       30.09R
EMPORIA        MOCLDY    59  34  39 NE12      30.06R
CHANUTE        CLOUDY    59  38  45 NE5       30.05R
WICHITA        CLOUDY    60  35  39 NE13      30.06R
OMAHA          MOCLDY    65  31  28 NE8       30.11R
LINCOLN        PTCLDY    60  34  37 NE7       30.13R
FALLS CITY     MOCLDY    62  33  33 NE6       30.08R
LAMONI         CLEAR     58  36  43 NE7       30.09R
DES MOINES     PTCLDY    65  29  25 NE7       30.11R

$$



USA.gov is the U.S. government's official web portal to all federal, state and local government web resources and services.